DW2182 Weather Reports


time (UTC)temp
F
wind
direction
speed
knots
gust
knots
rain 1hr
in
rain 24hr
in
rain mn
in
humidity
%
barometer
mb
20260503175517 71 135 6.1 13.9 0.00 0.00 0.00 30 1008.5
20260503174517 71 158 8.7 16.5 0.00 0.00 0.00 31 1008.5
20260503173557 71 158 8.7 18.2 0.00 0.00 0.00 31 1008.4
20260503172517 71 158 7.8 13.9 0.00 0.00 0.00 31 1008.7
20260503171517 70 158 7.0 12.2 0.00 0.00 0.00 34 1008.5
20260503170638 70 158 7.8 15.6 0.00 0.00 0.00 34 1008.6
20260503150557 62 135 6.1 13.0 0.00 0.00 0.00 46 1008.1
20260503130517 54 135 5.2 9.6 0.00 0.00 0.00 59 1007.0
20260503110517 53 135 4.3 9.6 0.00 0.00 0.00 60 1005.4
20260503081517 57 90 7.0 10.4 0.00 0.00 0.00 44 1006.3
20260503080516 57 90 7.8 13.0 0.00 0.00 0.00 44 1006.3
20260503072516 58 90 6.1 12.2 0.00 0.00 0.00 43 1006.9
20260503071516 59 68 5.2 10.4 0.00 0.00 0.00 41 1007.0
20260503070516 59 90 6.1 14.8 0.00 0.00 0.00 40 1007.3
20260503054516 61 90 6.1 12.2 0.00 0.00 0.00 36 1009.5
20260503053516 61 90 7.0 9.6 0.00 0.00 0.00 35 1009.8
20260503052516 61 90 7.0 8.7 0.00 0.00 0.00 37 1009.6
20260503051516 61 90 6.1 8.7 0.00 0.00 0.00 39 1009.4
20260503050516 61 90 6.1 9.6 0.00 0.00 0.00 38 1009.6
20260503045537 62 90 7.0 11.3 0.00 0.00 0.00 37 1009.3
20260503044517 62 90 5.2 9.6 0.00 0.00 0.00 37 1009.2
20260503043537 61 90 8.7 13.0 0.00 0.00 0.00 36 1009.2
20260503042516 61 90 7.0 12.2 0.00 0.00 0.00 37 1009.1
20260503041516 60 90 4.3 9.6 0.00 0.00 0.00 41 1009.2
20260503040516 60 90 3.5 7.8 0.00 0.00 0.00 42 1009.6
20260503035516 60 68 2.6 7.8 0.00 0.00 0.00 42 1009.7
20260503034517 60 90 4.3 7.0 0.00 0.00 0.00 42 1010.0
20260503033517 60 90 2.6 6.1 0.00 0.00 0.00 41 1010.1
20260503032517 61 90 5.2 9.6 0.00 0.00 0.00 40 1010.2
20260503031557 61 90 5.2 9.6 0.00 0.00 0.00 40 1010.1
20260503030517 61 90 4.3 7.0 0.00 0.00 0.00 40 1010.0
20260503025517 61 90 5.2 8.7 0.00 0.00 0.00 39 1010.1
20260503024537 62 90 4.3 7.8 0.00 0.00 0.00 39 1010.4
20260503023517 62 90 4.3 8.7 0.00 0.00 0.00 39 1010.4
20260503022516 63 90 3.5 6.1 0.00 0.00 0.00 38 1010.4
20260503021517 63 90 2.6 6.1 0.00 0.00 0.00 38 1010.6
20260503020517 63 90 3.5 7.0 0.00 0.00 0.00 37 1010.7
20260503015516 64 90 3.5 6.1 0.00 0.00 0.00 36 1010.9
20260503014516 64 90 4.3 7.0 0.00 0.00 0.00 35 1010.8
20260503013516 65 90 4.3 7.0 0.00 0.00 0.00 35 1010.9
20260503012516 65 90 4.3 7.8 0.00 0.00 0.00 34 1011.0
20260503011516 65 90 3.5 6.1 0.00 0.00 0.00 33 1011.0
20260503010517 66 113 0.9 3.5 0.00 0.00 0.00 33 1011.0
20260503005516 66 90 2.6 5.2 0.00 0.00 0.00 33 1011.2
20260503004516 66 113 2.6 7.0 0.00 0.00 0.00 32 1011.2
20260503003516 66 113 2.6 6.1 0.00 0.00 0.00 30 1011.3
20260503002516 67 113 5.2 12.2 0.00 0.00 0.00 31 1011.4
20260503001516 67 135 1.7 3.5 0.00 0.00 0.00 32 1011.3
20260503000516 67 113 3.5 6.1 0.00 0.00 0.00 31 1011.2
20260502235516 68 113 4.3 7.0 0.00 0.00 0.00 31 1011.3
20260502234516 68 113 5.2 9.6 0.00 0.00 0.00 30 1011.3
20260502233516 68 113 5.2 8.7 0.00 0.00 0.00 29 1011.3
20260502232516 68 113 5.2 10.4 0.00 0.00 0.00 30 1011.3
20260502231616 69 113 6.1 9.6 0.00 0.00 0.00 29 1011.3
20260502230516 69 113 5.2 7.8 0.00 0.00 0.00 29 1011.5
20260502225516 69 113 4.3 7.8 0.00 0.00 0.00 30 1011.5
20260502224516 69 113 6.1 9.6 0.00 0.00 0.00 30 1011.8
20260502223516 69 113 7.0 14.8 0.00 0.00 0.00 29 1011.9
20260502222517 70 113 7.0 13.0 0.00 0.00 0.00 29 1012.0
20260502221517 71 113 4.3 8.7 0.00 0.00 0.00 29 1012.1
20260502220537 70 113 6.1 9.6 0.00 0.00 0.00 28 1012.2
20260502215537 71 113 4.3 8.7 0.00 0.00 0.00 28 1012.3
20260502214536 70 113 3.5 7.8 0.00 0.00 0.00 29 1012.4
20260502213516 71 135 6.1 8.7 0.00 0.00 0.00 29 1012.6
20260502212516 70 113 5.2 10.4 0.00 0.00 0.00 29 1012.7
20260502211517 70 113 5.2 9.6 0.00 0.00 0.00 28 1012.9
20260502210516 70 113 4.3 10.4 0.00 0.00 0.00 28 1013.2
20260502205516 70 113 5.2 10.4 0.00 0.00 0.00 29 1013.3
20260502204516 70 113 7.8 14.8 0.00 0.00 0.00 29 1013.7
20260502203536 70 113 4.3 9.6 0.00 0.00 0.00 28 1013.9
20260502202516 70 113 4.3 10.4 0.00 0.00 0.00 30 1014.1
20260502201516 70 113 6.1 11.3 0.00 0.00 0.00 29 1014.2
20260502200516 71 113 7.0 12.2 0.00 0.00 0.00 30 1014.5
20260502195516 70 113 3.5 7.8 0.00 0.00 0.00 28 1014.7
20260502194636 69 113 5.2 12.2 0.00 0.00 0.00 28 1014.8
20260502193516 69 135 3.5 7.0 0.00 0.00 0.00 30 1015.1
20260502192516 69 113 5.2 8.7 0.00 0.00 0.00 29 1015.2
20260502191516 69 113 7.0 11.3 0.00 0.00 0.00 29 1015.5
20260502190536 69 135 3.5 9.6 0.00 0.00 0.00 29 1015.6
20260502185536 68 135 3.5 7.0 0.00 0.00 0.00 29 1015.8
20260502184516 67 113 7.8 17.4 0.00 0.00 0.00 29 1015.8
20260502183516 67 113 6.1 13.0 0.00 0.00 0.00 29 1016.1
20260502182516 67 113 5.2 11.3 0.00 0.00 0.00 28 1016.2
20260502181516 67 113 6.1 11.3 0.00 0.00 0.00 30 1016.5
20260502180516 66 113 4.3 7.8 0.00 0.00 0.00 29 1016.6